Weather History for Sheldon, IA

Change the Weather History Date:

Thursday, March 27, 2014

  Actual Average Record
Temperature  
Mean Temperature 37 °F -  
Max Temperature 44 °F 52 °F 76 °F (1989)
Min Temperature 30 °F 28 °F 4 °F (1955)
Degree Days  
Heating Degree Days 28    
Moisture  
Dew Point 36 °F    
Average Humidity 94    
Maximum Humidity 100    
Minimum Humidity 80    
Precipitation  
Precipitation 0.11 in - - ()
Sea Level Pressure  
Sea Level Pressure 29.48 in    
Wind  
Wind Speed 19 mph (ESE)    
Max Wind Speed 30 mph    
Max Gust Speed 43 mph    
Visibility 6 miles    
Events Rain , Snow    
Averages and records for this station are not official NWS values.
T = Trace of Precipitation, MM = Missing Value Source: NWS Daily Summary

Daily Weather History Graph

Daily Weather History Graph

Search for Another Location

Airport:

Trip Planner

Search our weather history database for the weather conditions in past years. The results will help you decide how hot, cold, wet, or windy it might be!

Date:

Astronomy

Mar. 27, 2014 Rise Set
Actual Time 7:14 AM CDT 7:43 PM CDT
Civil Twilight 6:45 AM CDT 8:12 PM CDT
Nautical Twilight 6:11 AM CDT 8:46 PM CDT
Astronomical Twilight 5:37 AM CDT 9:21 PM CDT
Moon 5:11 AM CDT (3/27) 4:28 PM CDT (3/27)
Length of Visible Light 13h 27m
Length of Day
12h 29m
Waning Crescent, 13% of the Moon is Illuminated
Mar 27
Waning Crescent
Mar 30
New
Apr 7
First Quarter
Apr 15
Full
Apr 22
Last Quarter

Hourly Weather History & Observations

Time (CDT) Temp. Windchill Dew Point Humidity Pressure Visibility Wind Dir Wind Speed Gust Speed Precip Events Conditions
12:15 AM 44.6 °F 34.9 °F 39.2 °F 81% 29.46 in 10.0 mi South 28.8 mph 39.1 mph N/A   Overcast
12:35 AM 44.6 °F 35.7 °F 39.2 °F 81% 29.46 in 10.0 mi South 24.2 mph 38.0 mph N/A   Overcast
12:55 AM 44.6 °F 35.1 °F 39.2 °F 81% 29.45 in 10.0 mi South 27.6 mph 38.0 mph N/A   Overcast
1:15 AM 42.8 °F 32.7 °F 39.2 °F 87% 29.44 in 10.0 mi South 27.6 mph 39.1 mph N/A   Overcast
1:35 AM 42.8 °F 32.7 °F 39.2 °F 87% 29.45 in 10.0 mi South 27.6 mph 36.8 mph N/A   Overcast
1:55 AM 42.8 °F 32.7 °F 39.2 °F 87% 29.45 in 10.0 mi South 27.6 mph 36.8 mph N/A   Overcast
2:15 AM 42.8 °F 34.0 °F 39.2 °F 87% 29.46 in 10.0 mi South 20.7 mph 33.4 mph N/A   Overcast
2:35 AM 42.8 °F 33.8 °F 39.2 °F 87% 29.46 in 7.0 mi South 21.9 mph 29.9 mph N/A   Overcast
2:55 AM 41.0 °F 32.2 °F 39.2 °F 93% 29.46 in 4.0 mi South 18.4 mph 28.8 mph N/A   Overcast
3:15 AM 41.0 °F 32.5 °F 41.0 °F 100% 29.45 in 2.5 mi South 17.3 mph 24.2 mph N/A   Overcast
3:35 AM 41.0 °F 32.2 °F 41.0 °F 100% 29.44 in 2.0 mi South 18.4 mph - N/A   Overcast
3:55 AM 41.0 °F 33.1 °F 41.0 °F 100% 29.43 in 2.5 mi South 15.0 mph 21.9 mph N/A   Overcast
4:15 AM 41.0 °F 32.5 °F 41.0 °F 100% 29.42 in 2.5 mi South 17.3 mph 25.3 mph N/A   Overcast
4:35 AM 41.0 °F 31.9 °F 41.0 °F 100% 29.41 in 3.0 mi South 19.6 mph - N/A   Overcast
4:55 AM 41.0 °F 32.8 °F 41.0 °F 100% 29.41 in 5.0 mi South 16.1 mph - N/A   Overcast
5:15 AM 41.0 °F 32.5 °F 41.0 °F 100% 29.40 in 7.0 mi South 17.3 mph 24.2 mph N/A   Overcast
5:35 AM 41.0 °F 33.5 °F 41.0 °F 100% 29.40 in 9.0 mi South 13.8 mph 21.9 mph N/A   Overcast
5:55 AM 41.0 °F 32.8 °F 41.0 °F 100% 29.40 in 9.0 mi South 16.1 mph - N/A   Overcast
6:15 AM 41.0 °F 32.8 °F 41.0 °F 100% 29.39 in 10.0 mi South 16.1 mph - N/A   Overcast
6:35 AM 41.0 °F 33.1 °F 41.0 °F 100% 29.38 in 10.0 mi South 15.0 mph - N/A   Overcast
6:55 AM 41.0 °F 33.5 °F 41.0 °F 100% 29.39 in 9.0 mi South 13.8 mph - N/A   Overcast
7:15 AM 41.0 °F 34.3 °F 41.0 °F 100% 29.39 in 8.0 mi SSE 11.5 mph - N/A   Overcast
7:35 AM 41.0 °F 34.7 °F 41.0 °F 100% 29.38 in 4.0 mi SSE 10.4 mph - N/A   Overcast
7:55 AM 41.0 °F 34.3 °F 39.2 °F 93% 29.39 in 3.0 mi SSE 11.5 mph - N/A   Overcast
8:15 AM 41.0 °F 34.7 °F 39.2 °F 93% 29.40 in 4.0 mi SSE 10.4 mph - N/A   Overcast
8:35 AM 41.0 °F 34.7 °F 39.2 °F 93% 29.40 in 3.0 mi SE 10.4 mph - N/A   Overcast
8:55 AM 41.0 °F 35.8 °F 39.2 °F 93% 29.40 in 2.0 mi SSE 8.1 mph - 0.03 in Rain Light Rain
9:15 AM 41.0 °F 34.7 °F 39.2 °F 93% 29.39 in 4.0 mi SSE 10.4 mph - N/A Rain Light Rain
9:35 AM 41.0 °F 33.9 °F 41.0 °F 100% 29.38 in 6.0 mi SSE 12.7 mph - N/A Rain Light Rain
9:55 AM 41.0 °F 35.2 °F 41.0 °F 100% 29.38 in 7.0 mi SSE 9.2 mph 15.0 mph N/A   Overcast
10:15 AM 41.0 °F 34.7 °F 41.0 °F 100% 29.38 in 3.0 mi SSE 10.4 mph - N/A   Overcast
10:35 AM 41.0 °F 35.8 °F 41.0 °F 100% 29.38 in 1.5 mi SSE 8.1 mph 13.8 mph N/A   Overcast
10:55 AM 41.0 °F 36.4 °F 41.0 °F 100% 29.38 in 1.0 mi SE 6.9 mph - N/A   Overcast
11:15 AM 41.0 °F - 41.0 °F 100% 29.38 in 0.8 mi Calm Calm - N/A   Overcast
11:35 AM 41.0 °F 38.0 °F 41.0 °F 100% 29.38 in 0.8 mi SSE 4.6 mph - N/A   Overcast
11:55 AM 41.0 °F - 41.0 °F 100% 29.38 in 0.8 mi Calm Calm - 0.01 in   Overcast
12:15 PM 41.0 °F - 41.0 °F 100% 29.38 in 0.8 mi Calm Calm - N/A   Overcast
12:35 PM 41.0 °F 38.0 °F 41.0 °F 100% 29.37 in 0.8 mi NE 4.6 mph - N/A   Overcast
12:55 PM 42.8 °F 40.1 °F 41.0 °F 93% 29.37 in 0.8 mi NE 4.6 mph - 0.01 in Rain Light Rain
1:15 PM 42.8 °F 41.1 °F 42.8 °F 100% 29.37 in 1.0 mi NE 3.5 mph - N/A Rain Light Rain
1:35 PM 42.8 °F - 42.8 °F 100% 29.37 in 1.2 mi Calm Calm - N/A   Overcast
1:55 PM 39.2 °F 29.3 °F 37.4 °F 93% 29.39 in 1.0 mi North 20.7 mph - 0.02 in   Overcast
2:15 PM 35.6 °F 24.8 °F 35.6 °F 100% 29.40 in 1.8 mi North 19.6 mph 25.3 mph N/A   Overcast
2:35 PM 35.6 °F 23.7 °F 33.8 °F 93% 29.38 in 3.0 mi North 24.2 mph 29.9 mph N/A Rain Light Rain
2:55 PM 33.8 °F 21.0 °F 33.8 °F 100% 29.40 in 4.0 mi North 25.3 mph - 0.03 in Rain Light Rain
3:15 PM 33.8 °F 21.6 °F 33.8 °F 100% 29.41 in 4.0 mi North 23.0 mph 28.8 mph N/A   Overcast
3:35 PM 33.8 °F 22.2 °F 32.0 °F 93% 29.42 in 5.0 mi North 20.7 mph - N/A   Overcast
3:55 PM 32.0 °F 20.1 °F 32.0 °F 100% 29.43 in 2.5 mi North 19.6 mph 26.5 mph N/A Rain Rain
4:15 PM 32.0 °F 19.8 °F 32.0 °F 100% 29.44 in 3.0 mi North 20.7 mph 28.8 mph N/A Rain Light Rain
4:35 PM 32.0 °F 18.6 °F 32.0 °F 100% 29.45 in 2.0 mi North 25.3 mph 31.1 mph N/A Snow Light Snow
4:55 PM 32.0 °F 18.9 °F 30.2 °F 93% 29.46 in 0.8 mi North 24.2 mph 33.4 mph 0.01 in Snow Light Snow
5:15 PM 32.0 °F 18.6 °F 30.2 °F 93% 29.47 in 2.5 mi North 25.3 mph - N/A Snow Light Snow
5:35 PM 32.0 °F 19.2 °F 30.2 °F 93% 29.49 in 3.0 mi North 23.0 mph 32.2 mph N/A Snow Light Snow
5:55 PM 32.0 °F 18.9 °F 30.2 °F 93% 29.50 in 3.0 mi North 24.2 mph 32.2 mph N/A Snow Light Snow
6:15 PM 32.0 °F 17.6 °F 28.4 °F 87% 29.52 in 9.0 mi North 29.9 mph 41.4 mph N/A Snow Light Snow
6:35 PM 32.0 °F 18.1 °F 28.4 °F 87% 29.54 in 9.0 mi North 27.6 mph 39.1 mph N/A   Overcast
7:15 PM 32.0 °F 18.4 °F 28.4 °F 87% 29.58 in 9.0 mi North 26.5 mph 38.0 mph N/A   Overcast
7:35 PM 32.0 °F 18.1 °F 28.4 °F 87% 29.60 in 10.0 mi North 27.6 mph 36.8 mph N/A   Overcast
7:55 PM 32.0 °F 18.6 °F 28.4 °F 87% 29.61 in 10.0 mi NNW 25.3 mph 42.6 mph N/A   Overcast
8:15 PM 32.0 °F 18.9 °F 28.4 °F 87% 29.63 in 10.0 mi North 24.2 mph 36.8 mph N/A   Overcast
8:35 PM 32.0 °F 18.9 °F 28.4 °F 87% 29.65 in 10.0 mi North 24.2 mph 31.1 mph N/A   Overcast
8:55 PM 32.0 °F 19.8 °F 28.4 °F 87% 29.68 in 10.0 mi NNW 20.7 mph 32.2 mph N/A   Overcast
9:15 PM 32.0 °F 18.9 °F 28.4 °F 87% 29.69 in 10.0 mi NNW 24.2 mph 29.9 mph N/A   Overcast
9:35 PM 32.0 °F 18.9 °F 28.4 °F 87% 29.71 in 10.0 mi NNW 24.2 mph 29.9 mph N/A   Overcast
9:55 PM 32.0 °F 19.8 °F 28.4 °F 87% 29.73 in 10.0 mi NNW 20.7 mph 26.5 mph N/A   Overcast
10:15 PM 32.0 °F 19.5 °F 28.4 °F 87% 29.74 in 10.0 mi NNW 21.9 mph - N/A   Overcast
10:35 PM 32.0 °F 20.1 °F 28.4 °F 87% 29.76 in 10.0 mi NNW 19.6 mph - N/A   Overcast
10:55 PM 32.0 °F 20.5 °F 26.6 °F 80% 29.77 in 10.0 mi NNW 18.4 mph 27.6 mph N/A   Overcast
11:15 PM 30.2 °F 17.4 °F 26.6 °F 86% 29.78 in 10.0 mi NNW 20.7 mph - N/A   Overcast
11:35 PM 30.2 °F 17.8 °F 26.6 °F 86% 29.79 in 10.0 mi NNW 19.6 mph 26.5 mph N/A   Overcast
11:55 PM 30.2 °F 18.1 °F 26.6 °F 86% 29.80 in 10.0 mi North 18.4 mph 24.2 mph N/A   Overcast